Regional Weather Roundup
Issued by NWS

Home | Current Version | Previous Version | Graphics & Text | Print | Product List | Glossary On
Versions: 1 2 3 4 5 6 7 8 9 10 11 12 13 14 15 16 17 18 19 20 21 22 23 24 25 26 27 28 29 30 31 32 33 34 35 36 37 38 39 40 41 42 43 44 45 46 47 48 49 50
000
ASUS43 KMKX 211721
RWRWI

WISCONSIN REGIONAL WEATHER ROUNDUP
NATIONAL WEATHER SERVICE MILWAUKEE/SULLIVAN WI
1200 PM CDT TUE OCT 21 2014

NOTE: "FAIR" INDICATES FEW OR NO CLOUDS BELOW 12,000 FEET WITH NO
SIGNIFICANT WEATHER AND/OR OBSTRUCTIONS TO VISIBILITY.

WIZ001-002-006>008-014>016-023>028-211800-
NORTHWEST WISCONSIN

CITY           SKY/WX    TMP DP  RH WIND       PRES   REMARKS
SUPERIOR ARPT  CLOUDY    46  37  70 E7        30.26S
ASHLAND        CLOUDY    44  34  67 VRB3      30.29R
HAYWARD        PTSUNNY   46  35  65 E9        30.25S
SIREN          SUNNY     50  35  56 SE5       30.23S
CUMBERLAND     SUNNY     46  34  61 E8        30.23S
RICE LAKE      MOSUNNY   48  35  62 E6        30.25S
CHETEK         PTSUNNY   48  37  66 E7        30.24S
LADYSMITH      MOSUNNY   48  36  64 E5        30.26F
EAU CLAIRE     SUNNY     48  36  63 CALM      30.24S
MENOMONIE      MOSUNNY   49  37  64 NE5       30.24S
NEW RICHMOND   SUNNY     49  36  60 E8        30.22S
OSCEOLA        SUNNY     51  39  63 SE7       30.24S
$$

WIZ003>005-009-010-017-018-211800-
NORTH CENTRAL WISCONSIN

CITY           SKY/WX    TMP DP  RH WIND       PRES   REMARKS
MANITOWISH WTR CLOUDY    38  35  86 E5        30.25S WCI  35
ARBOR VITAE    CLOUDY    42  36  79 E5        30.25S
WOODRUFF       CLOUDY    42  36  79 E5        30.25S
RHINELANDER    CLOUDY    40  33  76 CALM      30.26R
EAGLE RIVER    CLOUDY    41  33  73 SE7       30.25R
LAND O LAKES   CLOUDY    40  34  79 E5        30.26R
PHILLIPS       CLOUDY    41  35  79 NE6       30.24S
TOMAHAWK       CLOUDY    41  34  74 CALM      30.26S
MEDFORD        CLOUDY    44  35  71 E8        30.24S
MERRILL        PTSUNNY   45  35  66 E6        30.25S
$$

WIZ029-030-035-036-043>047-211800-
CENTRAL WISCONSIN

CITY           SKY/WX    TMP DP  RH WIND       PRES   REMARKS
WAUSAU         PTSUNNY   44  34  67 SE8       30.24S
MOSINEE        CLOUDY    43  37  81 E3        30.26R
MARSHFIELD     PTSUNNY   46  35  65 VRB3      30.24R
STEVENS POINT  CLOUDY    42  33  69 NE5       30.26R
WAUPACA        CLOUDY    47  36  63 N7        30.25S
WAUTOMA        CLOUDY    46  35  65 NE10      30.26S
WISC RAPIDS    CLOUDY    46  35  65 E6        30.27R
CAMP DOUGLAS   PTSUNNY   46  39  76 E3        30.25R
$$

WIZ011>013-019>022-031-037>040-048>050-211800-
NORTHEAST WISCONSIN

CITY           SKY/WX    TMP DP  RH WIND       PRES   REMARKS
ANTIGO         CLOUDY    43  35  72 N3        30.24S
SHAWANO        MOSUNNY   49  36  59 N6        30.25F
OCONTO         MOSUNNY   48  33  56 N9        30.24S
STURGEON BAY   PTSUNNY   46  34  61 N15G21    30.24R
GREEN BAY      MOSUNNY   48  35  60 NE6G17    30.25R
MANITOWOC      CLOUDY    48  36  63 N8        30.23R HAZE
APPLETON       PTSUNNY   46  36  66 NE9       30.24S
CLINTONVILLE   CLOUDY    46  34  61 NE7       30.25S
OSHKOSH        CLOUDY    46  37  71 N12       30.24R
$$

WIZ032>034-041-042-053>061-211800-
SOUTHWEST WISCONSIN

CITY           SKY/WX    TMP DP  RH WIND       PRES   REMARKS
LA CROSSE      SUNNY     52  38  58 SE6       30.24S
SPARTA         MOSUNNY   49  36  59 NE7       30.25F
VIROQUA        SUNNY     50  37  59 E3        30.22F
BOSCOBEL       SUNNY     53  37  54 VRB6      30.24S
PRAIRIE DU CHI SUNNY     51  36  56 CALM      30.23S
PLATTEVILLE    MOSUNNY   52  40  63 CALM      30.22F
$$

WIZ056-057-062-063-064-067-068-211800-
SOUTH CENTRAL WISCONSIN

CITY           SKY/WX    TMP DP  RH WIND       PRES   REMARKS
REEDSBURG      CLOUDY    46  36  68 E6        30.25R
BARABOO/DELLS  CLOUDY    46  35  65 E10       30.25R
LONE ROCK      MOSUNNY   54  37  52 E7        30.24S
MINERAL POINT  MOSUNNY   52  36  54 E5        30.23R
MADISON        CLOUDY    47  37  68 NE12      30.24R
MIDDLETON      CLOUDY    48  36  63 NE7       30.24S
WATERTOWN      CLOUDY    46  38  75 NE9       30.23R
MONROE         PTSUNNY   48  37  66 NE13      30.21S
JANESVILLE     PTSUNNY   52  37  58 N16       30.21R
$$

WIZ051-052-058>065-066-070>072-211800-
SOUTHEAST WISCONSIN

CITY           SKY/WX    TMP DP  RH WIND       PRES   REMARKS
MILWAUKEE      CLOUDY    48  38  68 N13       30.21R
WAUKESHA       CLOUDY    45  37  76 N9        30.22R
MILWAUKEE/TIMM CLOUDY    46  37  71 N17       30.22R
RACINE         CLOUDY    48  40  73 N17G23    30.21R
BURLINGTON     CLOUDY    47  37  67 NE12G17   30.21R
KENOSHA        CLOUDY    49  40  71 N12       30.20R
FOND DU LAC    CLOUDY    46  37  71 N10       30.24S
SHEBOYGAN      CLOUDY    48  36  63 N8G18     30.22R
WEST BEND      CLOUDY    45  36  70 N10       30.21F
JUNEAU         CLOUDY    45  37  74 NE8       30.24S
$$

LSZ147-162-211800-
LAKE SUPERIOR

STATION/POSITION TIME  TEMP    WIND        PRES    WAVE
                       AIR SEA DIR/SP/G            HT/PER
                 (UTC) (F)     (DEG/KT/KT) (MB)    (FT/S)
W MID LAKE BUOY  1650   41 46  100/ 10/ 12 1026.4R   3/ 6
DEVILS ISLAND    1700   42     120/ 10/ 14 1026.4R
PORT WING        1600   44      70/  5/ 10 1025.4
SAXON HARBOR     1600   44      70/  3/  9 1025.1S
$$

LMZ867-665-643>646-211800-
LAKE MICHIGAN

STATION/POSITION TIME  TEMP    WIND        PRES    WAVE
                       AIR SEA DIR/SP/G            HT/PER
                 (UTC) (F)     (DEG/KT/KT) (MB)    (FT/S)
CHAMBERS ISLAND  1600   47      10/ 15/ 19 1024.0R
N MID LAKE BUOY  1650   44 51   10/ 14/ 16 1023.8R   3/ 5
NORTHPORT PIER   1600   45     360/ 15/ 18 1023.7R
KEWAUNEE LAKESHO 1700   47      30/ 12/ 14 1022.6R
SHEBOYGAN LAKESH 1700   46 49   10/ 19/ 21 1023.8R
PORT WASHINGTON  1640   48     350/ 10/ 15 1023.7R
ATWATER BUOY     1700   48     360/ 16/ 19 1023.7R
MILWAUKEE LAKESH 1700   47     350/ 11/ 16   N/A
S MID LAKE BUOY  1650   50 54   10/ 17/ 21 1021.4R   6/ 7
KENOSHA   LAKESH 1700   48     340/ 16/ 19 1022.0S
$$

TC  - TEMPERATURE IN CELSIUS
VSB - VISIBILITY IN STATUTE MILES
WCI - WIND CHILL INDEX
HX  - HEAT INDEX




USA.gov is the U.S. government's official web portal to all federal, state and local government web resources and services.